Wetterdaten: Dienstag, 01.12.2015
Datum Zeit Temp. A. Feuchte A. Luftdruck Regen Wind Richtung Richtung Sonnenschein ET UV Solar Taupunkt Windchill Windben Empfang
01.12.2015 00:00 11,4 C 61 % 1017,5 hPa 0,0 l/m 32,9 km/h (5 Bft) W-SW 239 0 min 0,000 mm 0,0 UV-I 0 W/m 4,2 C 2,1 C 62,8 km/h (8 Bft) 99,11 %
01.12.2015 00:05 11,2 C 62 % 1017,6 hPa 0,0 l/m 35,2 km/h (5 Bft) SW 231 0 min 0,000 mm 0,0 UV-I 0 W/m 4,2 C 1,4 C 59,5 km/h (7 Bft) 94,83 %
01.12.2015 00:10 10,9 C 64 % 1017,5 hPa 0,0 l/m 35,3 km/h (5 Bft) W-SW 257 0 min 0,000 mm 0,0 UV-I 0 W/m 4,4 C 0,9 C 56,3 km/h (7 Bft) 97,37 %
01.12.2015 00:15 10,7 C 66 % 1017,7 hPa 0,0 l/m 32,4 km/h (5 Bft) W-SW 258 0 min 0,000 mm 0,0 UV-I 0 W/m 4,6 C 1,2 C 48,3 km/h (6 Bft) 97,46 %
01.12.2015 00:20 10,6 C 68 % 1017,9 hPa 0,0 l/m 25,8 km/h (4 Bft) SW 234 0 min 0,000 mm 0,0 UV-I 0 W/m 4,9 C 2,4 C 41,8 km/h (6 Bft) 97,39 %
01.12.2015 00:25 10,3 C 69 % 1017,8 hPa 0,0 l/m 27,0 km/h (4 Bft) W 261 0 min 0,000 mm 0,0 UV-I 0 W/m 4,9 C 1,7 C 46,7 km/h (6 Bft) 94,02 %
01.12.2015 00:30 10,1 C 71 % 1017,7 hPa 0,0 l/m 31,4 km/h (5 Bft) W-SW 239 0 min 0,000 mm 0,0 UV-I 0 W/m 5,1 C 0,5 C 56,3 km/h (7 Bft) 96,52 %
01.12.2015 00:35 9,9 C 72 % 1017,9 hPa 0,0 l/m 31,5 km/h (5 Bft) W-SW 240 0 min 0,000 mm 0,0 UV-I 0 W/m 5,1 C 0,2 C 53,1 km/h (7 Bft) 100,00 %
01.12.2015 00:40 9,7 C 73 % 1017,8 hPa 0,0 l/m 28,1 km/h (4 Bft) SW 233 0 min 0,000 mm 0,0 UV-I 0 W/m 5,1 C 0,7 C 49,9 km/h (6 Bft) 99,11 %
01.12.2015 00:45 9,6 C 74 % 1017,7 hPa 0,0 l/m 25,7 km/h (4 Bft) W-SW 242 0 min 0,000 mm 0,0 UV-I 0 W/m 5,2 C 1,1 C 41,8 km/h (6 Bft) 100,00 %
01.12.2015 00:50 9,4 C 74 % 1017,7 hPa 0,0 l/m 24,3 km/h (4 Bft) W 262 0 min 0,000 mm 0,0 UV-I 0 W/m 5,0 C 1,2 C 45,1 km/h (6 Bft) 99,15 %
01.12.2015 00:55 9,3 C 76 % 1017,8 hPa 0,0 l/m 23,1 km/h (4 Bft) W-SW 243 0 min 0,000 mm 0,0 UV-I 0 W/m 5,3 C 1,4 C 37,0 km/h (5 Bft) 98,31 %
01.12.2015 01:00 9,3 C 76 % 1017,7 hPa 0,2 l/m 25,0 km/h (4 Bft) W-SW 256 0 min 0,102 mm 0,0 UV-I 0 W/m 5,3 C 0,9 C 37,0 km/h (5 Bft) 100,00 %
01.12.2015 01:05 9,3 C 77 % 1017,6 hPa 0,0 l/m 25,0 km/h (4 Bft) SW 223 0 min 0,000 mm 0,0 UV-I 0 W/m 5,5 C 0,9 C 48,3 km/h (6 Bft) 100,00 %
01.12.2015 01:10 9,3 C 76 % 1017,8 hPa 0,2 l/m 27,5 km/h (4 Bft) W-SW 252 0 min 0,000 mm 0,0 UV-I 0 W/m 5,3 C 0,2 C 38,6 km/h (5 Bft) 98,39 %
01.12.2015 01:15 9,3 C 76 % 1017,8 hPa 0,0 l/m 25,3 km/h (4 Bft) W-SW 252 0 min 0,000 mm 0,0 UV-I 0 W/m 5,3 C 0,8 C 40,2 km/h (6 Bft) 100,00 %
01.12.2015 01:20 9,3 C 76 % 1017,8 hPa 0,0 l/m 25,0 km/h (4 Bft) W 259 0 min 0,000 mm 0,0 UV-I 0 W/m 5,3 C 0,9 C 41,8 km/h (6 Bft) 100,00 %
01.12.2015 01:25 9,3 C 77 % 1017,7 hPa 0,0 l/m 21,5 km/h (4 Bft) W-SW 240 0 min 0,000 mm 0,0 UV-I 0 W/m 5,5 C 1,9 C 32,2 km/h (5 Bft) 99,22 %
01.12.2015 01:30 9,3 C 76 % 1017,7 hPa 0,0 l/m 27,0 km/h (4 Bft) W-SW 254 0 min 0,000 mm 0,0 UV-I 0 W/m 5,3 C 0,4 C 41,8 km/h (6 Bft) 99,15 %
01.12.2015 01:35 9,3 C 78 % 1017,8 hPa 0,2 l/m 21,6 km/h (4 Bft) W 279 0 min 0,000 mm 0,0 UV-I 0 W/m 5,7 C 1,9 C 45,1 km/h (6 Bft) 99,11 %
01.12.2015 01:40 9,3 C 77 % 1017,7 hPa 0,0 l/m 22,4 km/h (4 Bft) W-SW 247 0 min 0,000 mm 0,0 UV-I 0 W/m 5,5 C 1,6 C 35,4 km/h (5 Bft) 99,13 %
01.12.2015 01:45 9,3 C 76 % 1017,8 hPa 0,0 l/m 24,5 km/h (4 Bft) W 265 0 min 0,000 mm 0,0 UV-I 0 W/m 5,3 C 1,0 C 40,2 km/h (6 Bft) 98,33 %
01.12.2015 01:50 9,4 C 76 % 1017,8 hPa 0,2 l/m 26,4 km/h (4 Bft) W-SW 256 0 min 0,000 mm 0,0 UV-I 0 W/m 5,4 C 0,7 C 48,3 km/h (6 Bft) 98,31 %
01.12.2015 01:55 9,4 C 76 % 1018,0 hPa 0,0 l/m 22,7 km/h (4 Bft) SW 224 0 min 0,000 mm 0,0 UV-I 0 W/m 5,4 C 1,7 C 40,2 km/h (6 Bft) 100,00 %
01.12.2015 02:00 9,4 C 77 % 1017,9 hPa 0,0 l/m 25,1 km/h (4 Bft) W-SW 252 0 min 0,050 mm 0,0 UV-I 0 W/m 5,6 C 1,0 C 38,6 km/h (5 Bft) 98,35 %
01.12.2015 02:05 9,4 C 77 % 1018,1 hPa 0,0 l/m 23,4 km/h (4 Bft) W-SW 258 0 min 0,000 mm 0,0 UV-I 0 W/m 5,6 C 1,5 C 41,8 km/h (6 Bft) 99,15 %
01.12.2015 02:10 9,4 C 76 % 1018,1 hPa 0,0 l/m 27,6 km/h (4 Bft) W-SW 248 0 min 0,000 mm 0,0 UV-I 0 W/m 5,4 C 0,4 C 41,8 km/h (6 Bft) 95,50 %
01.12.2015 02:15 9,4 C 77 % 1018,1 hPa 0,2 l/m 25,1 km/h (4 Bft) W-SW 252 0 min 0,000 mm 0,0 UV-I 0 W/m 5,6 C 1,0 C 41,8 km/h (6 Bft) 97,46 %
01.12.2015 02:20 9,3 C 78 % 1018,2 hPa 0,0 l/m 22,4 km/h (4 Bft) W-SW 253 0 min 0,000 mm 0,0 UV-I 0 W/m 5,7 C 1,6 C 35,4 km/h (5 Bft) 96,61 %
01.12.2015 02:25 9,2 C 79 % 1018,0 hPa 0,0 l/m 23,1 km/h (4 Bft) W-SW 244 0 min 0,000 mm 0,0 UV-I 0 W/m 5,8 C 1,3 C 32,2 km/h (5 Bft) 95,83 %
01.12.2015 02:30 9,2 C 79 % 1018,1 hPa 0,2 l/m 21,1 km/h (4 Bft) W 259 0 min 0,000 mm 0,0 UV-I 0 W/m 5,8 C 1,9 C 35,4 km/h (5 Bft) 97,46 %
01.12.2015 02:35 9,1 C 79 % 1018,1 hPa 0,0 l/m 20,7 km/h (4 Bft) W 263 0 min 0,000 mm 0,0 UV-I 0 W/m 5,7 C 1,9 C 40,2 km/h (6 Bft) 97,17 %
01.12.2015 02:40 9,1 C 79 % 1018,1 hPa 0,0 l/m 23,0 km/h (4 Bft) W-SW 254 0 min 0,000 mm 0,0 UV-I 0 W/m 5,7 C 1,2 C 46,7 km/h (6 Bft) 96,64 %
01.12.2015 02:45 9,2 C 79 % 1018,1 hPa 0,0 l/m 23,5 km/h (4 Bft) W 260 0 min 0,000 mm 0,0 UV-I 0 W/m 5,8 C 1,2 C 40,2 km/h (6 Bft) 97,46 %
01.12.2015 02:50 9,2 C 79 % 1018,1 hPa 0,2 l/m 21,4 km/h (4 Bft) W-SW 254 0 min 0,000 mm 0,0 UV-I 0 W/m 5,8 C 1,8 C 33,8 km/h (5 Bft) 99,15 %
01.12.2015 02:55 9,2 C 79 % 1018,2 hPa 0,0 l/m 22,6 km/h (4 Bft) W-SW 254 0 min 0,000 mm 0,0 UV-I 0 W/m 5,8 C 1,4 C 35,4 km/h (5 Bft) 96,69 %
01.12.2015 03:00 9,2 C 80 % 1018,3 hPa 0,0 l/m 17,7 km/h (3 Bft) W-SW 250 0 min 0,000 mm 0,0 UV-I 0 W/m 5,9 C 3,1 C 35,4 km/h (5 Bft) 98,31 %
01.12.2015 03:05 9,1 C 80 % 1018,2 hPa 0,2 l/m 19,5 km/h (3 Bft) W 263 0 min 0,051 mm 0,0 UV-I 0 W/m 5,8 C 2,3 C 37,0 km/h (5 Bft) 100,00 %
01.12.2015 03:10 9,1 C 80 % 1018,2 hPa 0,0 l/m 21,1 km/h (4 Bft) W-SW 253 0 min 0,000 mm 0,0 UV-I 0 W/m 5,8 C 1,8 C 33,8 km/h (5 Bft) 99,17 %
01.12.2015 03:15 9,1 C 80 % 1018,1 hPa 0,0 l/m 19,7 km/h (3 Bft) SW 234 0 min 0,000 mm 0,0 UV-I 0 W/m 5,8 C 2,2 C 32,2 km/h (5 Bft) 99,15 %
01.12.2015 03:20 9,0 C 81 % 1018,0 hPa 0,0 l/m 18,8 km/h (3 Bft) W 262 0 min 0,000 mm 0,0 UV-I 0 W/m 5,9 C 2,4 C 29,0 km/h (5 Bft) 100,00 %
01.12.2015 03:25 8,9 C 81 % 1018,2 hPa 0,2 l/m 19,3 km/h (3 Bft) W-SW 246 0 min 0,000 mm 0,0 UV-I 0 W/m 5,8 C 2,1 C 33,8 km/h (5 Bft) 99,17 %
01.12.2015 03:30 9,0 C 81 % 1018,2 hPa 0,0 l/m 21,9 km/h (4 Bft) W-SW 253 0 min 0,000 mm 0,0 UV-I 0 W/m 5,9 C 1,4 C 38,6 km/h (5 Bft) 100,00 %
01.12.2015 03:35 8,9 C 82 % 1018,3 hPa 0,2 l/m 17,3 km/h (3 Bft) SW 232 0 min 0,000 mm 0,0 UV-I 0 W/m 6,0 C 2,8 C 27,4 km/h (4 Bft) 98,31 %
01.12.2015 03:40 8,9 C 82 % 1018,4 hPa 0,0 l/m 20,0 km/h (4 Bft) W 262 0 min 0,000 mm 0,0 UV-I 0 W/m 6,0 C 1,9 C 30,6 km/h (5 Bft) 100,00 %
01.12.2015 03:45 9,0 C 81 % 1018,5 hPa 0,0 l/m 22,8 km/h (4 Bft) W 269 0 min 0,000 mm 0,0 UV-I 0 W/m 5,9 C 1,1 C 32,2 km/h (5 Bft) 98,33 %
01.12.2015 03:50 9,0 C 81 % 1018,5 hPa 0,0 l/m 21,1 km/h (4 Bft) W 262 0 min 0,000 mm 0,0 UV-I 0 W/m 5,9 C 1,6 C 30,6 km/h (5 Bft) 99,15 %
01.12.2015 03:55 9,1 C 81 % 1018,5 hPa 0,2 l/m 21,5 km/h (4 Bft) SW 225 0 min 0,000 mm 0,0 UV-I 0 W/m 6,0 C 1,6 C 35,4 km/h (5 Bft) 100,00 %
01.12.2015 04:00 9,1 C 81 % 1018,5 hPa 0,0 l/m 19,7 km/h (3 Bft) W-SW 252 0 min 0,051 mm 0,0 UV-I 0 W/m 6,0 C 2,2 C 35,4 km/h (5 Bft) 99,08 %
01.12.2015 04:05 9,1 C 81 % 1018,6 hPa 0,0 l/m 20,8 km/h (4 Bft) W 266 0 min 0,000 mm 0,0 UV-I 0 W/m 6,0 C 1,9 C 37,0 km/h (5 Bft) 98,04 %
01.12.2015 04:10 9,1 C 82 % 1018,7 hPa 0,0 l/m 23,2 km/h (4 Bft) W-SW 248 0 min 0,000 mm 0,0 UV-I 0 W/m 6,2 C 1,1 C 37,0 km/h (5 Bft) 99,17 %
01.12.2015 04:15 9,1 C 82 % 1018,7 hPa 0,2 l/m 22,5 km/h (4 Bft) W-NW 290 0 min 0,000 mm 0,0 UV-I 0 W/m 6,2 C 1,3 C 49,9 km/h (6 Bft) 98,17 %
01.12.2015 04:20 9,0 C 83 % 1018,7 hPa 0,0 l/m 22,6 km/h (4 Bft) W 263 0 min 0,000 mm 0,0 UV-I 0 W/m 6,3 C 1,2 C 38,6 km/h (5 Bft) 97,46 %
01.12.2015 04:25 8,9 C 83 % 1018,7 hPa 0,2 l/m 24,0 km/h (4 Bft) W 280 0 min 0,000 mm 0,0 UV-I 0 W/m 6,2 C 0,6 C 32,2 km/h (5 Bft) 97,44 %
01.12.2015 04:30 8,9 C 83 % 1018,8 hPa 0,0 l/m 21,2 km/h (4 Bft) W-SW 257 0 min 0,000 mm 0,0 UV-I 0 W/m 6,2 C 1,5 C 35,4 km/h (5 Bft) 96,61 %
01.12.2015 04:35 8,9 C 83 % 1018,6 hPa 0,0 l/m 23,0 km/h (4 Bft) W-SW 257 0 min 0,000 mm 0,0 UV-I 0 W/m 6,2 C 0,9 C 37,0 km/h (5 Bft) 95,83 %
01.12.2015 04:40 9,0 C 82 % 1018,8 hPa 0,0 l/m 22,7 km/h (4 Bft) W 271 0 min 0,000 mm 0,0 UV-I 0 W/m 6,1 C 1,1 C 48,3 km/h (6 Bft) 96,61 %
01.12.2015 04:45 8,9 C 83 % 1018,9 hPa 0,0 l/m 21,3 km/h (4 Bft) W 271 0 min 0,000 mm 0,0 UV-I 0 W/m 6,2 C 1,4 C 40,2 km/h (6 Bft) 95,76 %
01.12.2015 04:50 8,8 C 84 % 1018,9 hPa 0,0 l/m 16,8 km/h (3 Bft) SW 234 0 min 0,000 mm 0,0 UV-I 0 W/m 6,2 C 2,9 C 27,4 km/h (4 Bft) 95,83 %
01.12.2015 04:55 8,7 C 85 % 1019,1 hPa 0,2 l/m 13,7 km/h (3 Bft) W-SW 242 0 min 0,000 mm 0,0 UV-I 0 W/m 6,3 C 4,2 C 24,1 km/h (4 Bft) 98,17 %
01.12.2015 05:00 8,6 C 85 % 1019,1 hPa 0,0 l/m 13,5 km/h (3 Bft) SW 226 0 min 0,025 mm 0,0 UV-I 0 W/m 6,2 C 4,1 C 22,5 km/h (4 Bft) 99,19 %
01.12.2015 05:05 8,4 C 86 % 1019,1 hPa 0,0 l/m 15,2 km/h (3 Bft) W-SW 248 0 min 0,000 mm 0,0 UV-I 0 W/m 6,2 C 3,1 C 22,5 km/h (4 Bft) 99,15 %
01.12.2015 05:10 8,4 C 86 % 1019,1 hPa 0,0 l/m 18,8 km/h (3 Bft) SW 234 0 min 0,000 mm 0,0 UV-I 0 W/m 6,2 C 1,6 C 32,2 km/h (5 Bft) 96,33 %
01.12.2015 05:15 8,5 C 86 % 1019,2 hPa 0,0 l/m 20,0 km/h (4 Bft) W-SW 242 0 min 0,000 mm 0,0 UV-I 0 W/m 6,3 C 1,3 C 30,6 km/h (5 Bft) 100,00 %
01.12.2015 05:20 8,6 C 85 % 1019,2 hPa 0,0 l/m 17,9 km/h (3 Bft) SW 227 0 min 0,000 mm 0,0 UV-I 0 W/m 6,2 C 2,2 C 29,0 km/h (5 Bft) 95,93 %
01.12.2015 05:25 8,4 C 86 % 1019,2 hPa 0,0 l/m 17,2 km/h (3 Bft) SW 217 0 min 0,000 mm 0,0 UV-I 0 W/m 6,2 C 2,3 C 27,4 km/h (4 Bft) 100,00 %
01.12.2015 05:30 8,4 C 86 % 1019,2 hPa 0,0 l/m 15,3 km/h (3 Bft) W-SW 239 0 min 0,000 mm 0,0 UV-I 0 W/m 6,2 C 3,1 C 22,5 km/h (4 Bft) 100,00 %
01.12.2015 05:35 8,5 C 85 % 1019,3 hPa 0,0 l/m 19,7 km/h (3 Bft) W-SW 240 0 min 0,000 mm 0,0 UV-I 0 W/m 6,1 C 1,5 C 30,6 km/h (5 Bft) 97,52 %
01.12.2015 05:40 8,6 C 85 % 1019,3 hPa 0,0 l/m 17,5 km/h (3 Bft) W-SW 250 0 min 0,000 mm 0,0 UV-I 0 W/m 6,2 C 2,4 C 27,4 km/h (4 Bft) 100,00 %
01.12.2015 05:45 8,6 C 85 % 1019,5 hPa 0,0 l/m 19,8 km/h (3 Bft) SW 222 0 min 0,000 mm 0,0 UV-I 0 W/m 6,2 C 1,5 C 37,0 km/h (5 Bft) 99,15 %
01.12.2015 05:50 8,6 C 85 % 1019,5 hPa 0,0 l/m 19,0 km/h (3 Bft) W-SW 242 0 min 0,000 mm 0,0 UV-I 0 W/m 6,2 C 1,8 C 32,2 km/h (5 Bft) 97,46 %
01.12.2015 05:55 8,6 C 85 % 1019,4 hPa 0,0 l/m 18,6 km/h (3 Bft) W-SW 238 0 min 0,000 mm 0,0 UV-I 0 W/m 6,2 C 2,0 C 27,4 km/h (4 Bft) 99,13 %
01.12.2015 06:00 8,6 C 85 % 1019,5 hPa 0,0 l/m 20,8 km/h (4 Bft) SW 217 0 min 0,026 mm 0,0 UV-I 0 W/m 6,2 C 1,2 C 33,8 km/h (5 Bft) 95,83 %
01.12.2015 06:05 8,7 C 85 % 1019,5 hPa 0,0 l/m 19,3 km/h (3 Bft) W-SW 255 0 min 0,000 mm 0,0 UV-I 0 W/m 6,3 C 1,9 C 33,8 km/h (5 Bft) 98,35 %
01.12.2015 06:10 8,7 C 84 % 1019,7 hPa 0,2 l/m 22,4 km/h (4 Bft) SW 225 0 min 0,000 mm 0,0 UV-I 0 W/m 6,2 C 0,8 C 41,8 km/h (6 Bft) 98,29 %
01.12.2015 06:15 8,7 C 84 % 1019,7 hPa 0,0 l/m 22,4 km/h (4 Bft) W-SW 238 0 min 0,000 mm 0,0 UV-I 0 W/m 6,2 C 0,8 C 35,4 km/h (5 Bft) 99,15 %
01.12.2015 06:20 8,7 C 84 % 1019,7 hPa 0,0 l/m 21,8 km/h (4 Bft) S-SW 210 0 min 0,000 mm 0,0 UV-I 0 W/m 6,2 C 1,0 C 35,4 km/h (5 Bft) 98,17 %
01.12.2015 06:25 8,6 C 85 % 1019,9 hPa 0,2 l/m 22,8 km/h (4 Bft) W-SW 240 0 min 0,000 mm 0,0 UV-I 0 W/m 6,2 C 0,6 C 37,0 km/h (5 Bft) 99,15 %
01.12.2015 06:30 8,5 C 86 % 1019,8 hPa 0,0 l/m 20,7 km/h (4 Bft) SW 218 0 min 0,000 mm 0,0 UV-I 0 W/m 6,3 C 1,1 C 30,6 km/h (5 Bft) 99,17 %
01.12.2015 06:35 8,4 C 86 % 1020,0 hPa 0,0 l/m 24,0 km/h (4 Bft) SW 224 0 min 0,000 mm 0,0 UV-I 0 W/m 6,2 C -0,1 C 38,6 km/h (5 Bft) 95,83 %
01.12.2015 06:40 8,3 C 87 % 1020,2 hPa 0,2 l/m 22,6 km/h (4 Bft) SW 221 0 min 0,000 mm 0,0 UV-I 0 W/m 6,3 C 0,2 C 38,6 km/h (5 Bft) 96,61 %
01.12.2015 06:45 8,4 C 87 % 1020,1 hPa 0,0 l/m 25,2 km/h (4 Bft) SW 216 0 min 0,000 mm 0,0 UV-I 0 W/m 6,4 C -0,4 C 37,0 km/h (5 Bft) 97,46 %
01.12.2015 06:50 8,4 C 87 % 1020,2 hPa 0,0 l/m 21,1 km/h (4 Bft) SW 217 0 min 0,000 mm 0,0 UV-I 0 W/m 6,4 C 0,8 C 38,6 km/h (5 Bft) 96,30 %
01.12.2015 06:55 8,3 C 88 % 1020,4 hPa 0,0 l/m 21,2 km/h (4 Bft) W 266 0 min 0,000 mm 0,0 UV-I 0 W/m 6,4 C 0,7 C 37,0 km/h (5 Bft) 96,69 %
01.12.2015 07:00 8,3 C 87 % 1020,3 hPa 0,0 l/m 21,0 km/h (4 Bft) W-SW 243 0 min 0,025 mm 0,0 UV-I 0 W/m 6,3 C 0,7 C 38,6 km/h (5 Bft) 96,61 %
01.12.2015 07:05 8,3 C 88 % 1020,5 hPa 0,0 l/m 24,6 km/h (4 Bft) SW 221 0 min 0,000 mm 0,0 UV-I 0 W/m 6,4 C -0,4 C 37,0 km/h (5 Bft) 96,67 %
01.12.2015 07:10 8,3 C 88 % 1020,6 hPa 0,0 l/m 22,9 km/h (4 Bft) SW 225 0 min 0,000 mm 0,0 UV-I 0 W/m 6,4 C 0,1 C 38,6 km/h (5 Bft) 100,00 %
01.12.2015 07:15 8,3 C 88 % 1020,7 hPa 0,2 l/m 24,0 km/h (4 Bft) SW 234 0 min 0,000 mm 0,0 UV-I 0 W/m 6,4 C -0,2 C 35,4 km/h (5 Bft) 97,52 %
01.12.2015 07:20 8,3 C 88 % 1020,8 hPa 0,0 l/m 21,9 km/h (4 Bft) SW 220 0 min 0,000 mm 0,0 UV-I 0 W/m 6,4 C 0,5 C 40,2 km/h (6 Bft) 99,10 %
01.12.2015 07:25 8,3 C 88 % 1020,9 hPa 0,0 l/m 19,1 km/h (3 Bft) W-SW 248 0 min 0,000 mm 0,0 UV-I 0 W/m 6,4 C 1,4 C 29,0 km/h (5 Bft) 100,00 %
01.12.2015 07:30 8,2 C 88 % 1021,0 hPa 0,0 l/m 18,3 km/h (3 Bft) SW 227 0 min 0,000 mm 0,0 UV-I 0 W/m 6,3 C 1,6 C 43,5 km/h (6 Bft) 99,15 %
01.12.2015 07:35 8,2 C 88 % 1021,1 hPa 0,0 l/m 19,4 km/h (3 Bft) W-SW 251 0 min 0,000 mm 0,0 UV-I 0 W/m 6,3 C 1,2 C 32,2 km/h (5 Bft) 97,58 %
01.12.2015 07:40 8,2 C 89 % 1021,2 hPa 0,0 l/m 16,9 km/h (3 Bft) W-SW 242 0 min 0,000 mm 0,0 UV-I 0 W/m 6,5 C 2,1 C 33,8 km/h (5 Bft) 97,46 %
01.12.2015 07:45 8,1 C 89 % 1021,3 hPa 0,0 l/m 17,3 km/h (3 Bft) SW 223 0 min 0,000 mm 0,0 UV-I 0 W/m 6,4 C 1,8 C 30,6 km/h (5 Bft) 99,07 %
01.12.2015 07:50 8,1 C 89 % 1021,3 hPa 0,0 l/m 18,5 km/h (3 Bft) S 181 0 min 0,000 mm 0,0 UV-I 0 W/m 6,4 C 1,4 C 29,0 km/h (5 Bft) 99,19 %
01.12.2015 07:55 8,1 C 89 % 1021,5 hPa 0,0 l/m 16,7 km/h (3 Bft) SW 229 0 min 0,000 mm 0,0 UV-I 0 W/m 6,4 C 2,1 C 27,4 km/h (4 Bft) 97,46 %
01.12.2015 08:00 8,1 C 89 % 1021,4 hPa 0,0 l/m 17,3 km/h (3 Bft) SW 231 0 min 0,026 mm 0,0 UV-I 0 W/m 6,4 C 1,8 C 29,0 km/h (5 Bft) 100,00 %
01.12.2015 08:05 8,1 C 89 % 1021,6 hPa 0,0 l/m 20,3 km/h (4 Bft) SW 215 0 min 0,000 mm 0,0 UV-I 0 W/m 6,4 C 0,7 C 32,2 km/h (5 Bft) 100,00 %
01.12.2015 08:10 8,2 C 89 % 1021,6 hPa 0,0 l/m 20,3 km/h (4 Bft) S-SW 211 0 min 0,000 mm 0,0 UV-I 0 W/m 6,5 C 0,9 C 32,2 km/h (5 Bft) 99,06 %
01.12.2015 08:15 8,2 C 89 % 1021,6 hPa 0,0 l/m 20,7 km/h (4 Bft) S-SW 213 0 min 0,000 mm 0,0 UV-I 1 W/m 6,5 C 0,7 C 32,2 km/h (5 Bft) 96,67 %
01.12.2015 08:20 8,2 C 89 % 1021,6 hPa 0,2 l/m 24,0 km/h (4 Bft) S-SW 201 0 min 0,000 mm 0,0 UV-I 6 W/m 6,5 C -0,3 C 37,0 km/h (5 Bft) 97,52 %
01.12.2015 08:25 8,2 C 89 % 1021,7 hPa 0,0 l/m 21,5 km/h (4 Bft) W-SW 244 0 min 0,000 mm 0,0 UV-I 6 W/m 6,5 C 0,5 C 35,4 km/h (5 Bft) 97,44 %
01.12.2015 08:30 8,2 C 89 % 1021,7 hPa 0,0 l/m 20,3 km/h (4 Bft) W-SW 244 0 min 0,000 mm 0,0 UV-I 6 W/m 6,5 C 0,9 C 32,2 km/h (5 Bft) 99,17 %
01.12.2015 08:35 8,2 C 88 % 1021,9 hPa 0,0 l/m 22,1 km/h (4 Bft) S-SW 212 0 min 0,000 mm 0,0 UV-I 7 W/m 6,3 C 0,3 C 35,4 km/h (5 Bft) 99,08 %
01.12.2015 08:40 8,2 C 88 % 1021,8 hPa 0,0 l/m 22,9 km/h (4 Bft) SW 223 0 min 0,000 mm 0,0 UV-I 10 W/m 6,3 C 0,0 C 33,8 km/h (5 Bft) 95,73 %
01.12.2015 08:45 8,3 C 88 % 1021,8 hPa 0,0 l/m 26,3 km/h (4 Bft) SW 217 0 min 0,000 mm 0,0 UV-I 10 W/m 6,4 C -0,8 C 38,6 km/h (5 Bft) 94,07 %
01.12.2015 08:50 8,3 C 87 % 1021,8 hPa 0,0 l/m 23,7 km/h (4 Bft) SW 228 0 min 0,000 mm 0,0 UV-I 9 W/m 6,3 C -0,1 C 37,0 km/h (5 Bft) 95,93 %
01.12.2015 08:55 8,4 C 87 % 1021,8 hPa 0,2 l/m 23,8 km/h (4 Bft) SW 233 0 min 0,000 mm 0,0 UV-I 11 W/m 6,4 C 0,0 C 41,8 km/h (6 Bft) 97,46 %
01.12.2015 09:00 8,4 C 87 % 1022,0 hPa 0,0 l/m 24,7 km/h (4 Bft) SW 219 0 min 0,025 mm 0,0 UV-I 9 W/m 6,4 C -0,3 C 43,5 km/h (6 Bft) 96,33 %
01.12.2015 09:05 8,4 C 87 % 1022,0 hPa 0,0 l/m 22,5 km/h (4 Bft) W-SW 247 0 min 0,000 mm 0,0 UV-I 9 W/m 6,4 C 0,4 C 35,4 km/h (5 Bft) 99,12 %
01.12.2015 09:10 8,5 C 86 % 1022,0 hPa 0,0 l/m 24,6 km/h (4 Bft) SW 223 0 min 0,000 mm 0,0 UV-I 10 W/m 6,3 C -0,1 C 40,2 km/h (6 Bft) 96,57 %
01.12.2015 09:15 8,5 C 87 % 1022,1 hPa 0,0 l/m 22,1 km/h (4 Bft) SW 233 0 min 0,000 mm 0,0 UV-I 12 W/m 6,5 C 0,7 C 33,8 km/h (5 Bft) 92,74 %
01.12.2015 09:20 8,5 C 87 % 1022,2 hPa 0,0 l/m 20,7 km/h (4 Bft) W 259 0 min 0,000 mm 0,0 UV-I 12 W/m 6,5 C 1,1 C 37,0 km/h (5 Bft) 98,21 %
01.12.2015 09:25 8,5 C 87 % 1022,2 hPa 0,0 l/m 22,0 km/h (4 Bft) SW 221 0 min 0,000 mm 0,0 UV-I 11 W/m 6,5 C 0,7 C 40,2 km/h (6 Bft) 98,29 %
01.12.2015 09:30 8,6 C 86 % 1022,4 hPa 0,0 l/m 23,5 km/h (4 Bft) SW 221 0 min 0,000 mm 0,0 UV-I 14 W/m 6,4 C 0,4 C 37,0 km/h (5 Bft) 99,19 %
01.12.2015 09:35 8,6 C 86 % 1022,4 hPa 0,0 l/m 21,1 km/h (4 Bft) SW 225 0 min 0,000 mm 0,0 UV-I 14 W/m 6,4 C 1,1 C 35,4 km/h (5 Bft) 98,29 %
01.12.2015 09:40 8,6 C 86 % 1022,6 hPa 0,0 l/m 21,5 km/h (4 Bft) SW 233 0 min 0,000 mm 0,0 UV-I 15 W/m 6,4 C 1,0 C 24,1 km/h (4 Bft) 99,12 %
01.12.2015 09:45 8,7 C 86 % 1022,5 hPa 0,0 l/m 24,3 km/h (4 Bft) SW 236 0 min 0,000 mm 0,0 UV-I 17 W/m 6,5 C 0,3 C 45,1 km/h (6 Bft) 98,31 %
01.12.2015 09:50 8,7 C 85 % 1022,6 hPa 0,0 l/m 25,0 km/h (4 Bft) W 261 0 min 0,000 mm 0,0 UV-I 17 W/m 6,3 C 0,1 C 46,7 km/h (6 Bft) 98,25 %
01.12.2015 09:55 8,8 C 85 % 1022,5 hPa 0,0 l/m 24,7 km/h (4 Bft) SW 215 0 min 0,000 mm 0,0 UV-I 18 W/m 6,4 C 0,3 C 38,6 km/h (5 Bft) 95,97 %
01.12.2015 10:00 8,8 C 85 % 1022,6 hPa 0,0 l/m 20,4 km/h (4 Bft) W 261 0 min 0,025 mm 0,0 UV-I 18 W/m 6,4 C 1,6 C 35,4 km/h (5 Bft) 100,00 %
01.12.2015 10:05 8,9 C 84 % 1022,7 hPa 0,0 l/m 22,5 km/h (4 Bft) SW 236 0 min 0,000 mm 0,0 UV-I 21 W/m 6,3 C 1,1 C 38,6 km/h (5 Bft) 99,17 %
01.12.2015 10:10 8,9 C 84 % 1022,8 hPa 0,0 l/m 22,6 km/h (4 Bft) SW 233 0 min 0,000 mm 0,0 UV-I 19 W/m 6,3 C 1,0 C 37,0 km/h (5 Bft) 98,31 %
01.12.2015 10:15 8,9 C 83 % 1022,7 hPa 0,0 l/m 23,0 km/h (4 Bft) W-SW 249 0 min 0,000 mm 0,0 UV-I 18 W/m 6,2 C 0,9 C 37,0 km/h (5 Bft) 98,31 %
01.12.2015 10:20 9,1 C 83 % 1022,8 hPa 0,0 l/m 23,6 km/h (4 Bft) S 175 0 min 0,000 mm 0,0 UV-I 20 W/m 6,4 C 1,0 C 37,0 km/h (5 Bft) 99,17 %
01.12.2015 10:25 9,1 C 83 % 1022,8 hPa 0,0 l/m 23,5 km/h (4 Bft) SW 229 0 min 0,000 mm 0,0 UV-I 18 W/m 6,4 C 1,0 C 40,2 km/h (6 Bft) 98,11 %
01.12.2015 10:30 9,2 C 82 % 1022,7 hPa 0,2 l/m 26,1 km/h (4 Bft) SW 236 0 min 0,000 mm 0,0 UV-I 24 W/m 6,3 C 0,5 C 45,1 km/h (6 Bft) 97,46 %
01.12.2015 10:35 9,2 C 82 % 1022,8 hPa 0,0 l/m 23,8 km/h (4 Bft) SW 216 0 min 0,000 mm 0,0 UV-I 27 W/m 6,3 C 1,1 C 35,4 km/h (5 Bft) 100,00 %
01.12.2015 10:40 9,2 C 82 % 1022,8 hPa 0,0 l/m 23,6 km/h (4 Bft) SW 232 0 min 0,000 mm 0,0 UV-I 24 W/m 6,3 C 1,1 C 38,6 km/h (5 Bft) 100,00 %
01.12.2015 10:45 9,2 C 83 % 1022,8 hPa 0,0 l/m 23,7 km/h (4 Bft) W-SW 249 0 min 0,000 mm 0,0 UV-I 24 W/m 6,5 C 1,1 C 38,6 km/h (5 Bft) 99,15 %
01.12.2015 10:50 9,1 C 84 % 1022,9 hPa 0,0 l/m 23,6 km/h (4 Bft) SW 231 0 min 0,000 mm 0,0 UV-I 29 W/m 6,5 C 1,0 C 40,2 km/h (6 Bft) 96,36 %
01.12.2015 10:55 8,9 C 85 % 1022,8 hPa 0,0 l/m 22,7 km/h (4 Bft) W-SW 240 0 min 0,000 mm 0,0 UV-I 27 W/m 6,5 C 1,0 C 33,8 km/h (5 Bft) 95,76 %
01.12.2015 11:00 8,8 C 85 % 1022,6 hPa 0,0 l/m 21,4 km/h (4 Bft) S-SW 211 0 min 0,051 mm 0,0 UV-I 29 W/m 6,4 C 1,3 C 32,2 km/h (5 Bft) 95,73 %
01.12.2015 11:05 8,9 C 85 % 1022,5 hPa 0,0 l/m 23,7 km/h (4 Bft) W-SW 254 0 min 0,000 mm 0,0 UV-I 35 W/m 6,5 C 0,7 C 38,6 km/h (5 Bft) 95,76 %
01.12.2015 11:10 8,9 C 85 % 1022,6 hPa 0,0 l/m 23,4 km/h (4 Bft) W 262 0 min 0,000 mm 0,0 UV-I 30 W/m 6,5 C 0,8 C 40,2 km/h (6 Bft) 96,67 %
01.12.2015 11:15 8,9 C 85 % 1022,6 hPa 0,2 l/m 26,7 km/h (4 Bft) W-SW 254 0 min 0,000 mm 0,0 UV-I 27 W/m 6,5 C -0,1 C 43,5 km/h (6 Bft) 97,46 %
01.12.2015 11:20 8,9 C 85 % 1022,7 hPa 0,0 l/m 25,9 km/h (4 Bft) SW 217 0 min 0,000 mm 0,0 UV-I 25 W/m 6,5 C 0,1 C 43,5 km/h (6 Bft) 97,46 %
01.12.2015 11:25 8,9 C 86 % 1022,9 hPa 0,0 l/m 25,7 km/h (4 Bft) W 265 0 min 0,000 mm 0,0 UV-I 28 W/m 6,7 C 0,2 C 43,5 km/h (6 Bft) 99,17 %
01.12.2015 11:30 8,8 C 86 % 1022,7 hPa 0,0 l/m 27,3 km/h (4 Bft) W 265 0 min 0,000 mm 0,0 UV-I 28 W/m 6,6 C -0,4 C 41,8 km/h (6 Bft) 99,08 %
01.12.2015 11:35 8,8 C 86 % 1022,7 hPa 0,2 l/m 27,0 km/h (4 Bft) SW 231 0 min 0,000 mm 0,0 UV-I 31 W/m 6,6 C -0,3 C 45,1 km/h (6 Bft) 98,31 %
01.12.2015 11:40 8,8 C 86 % 1022,8 hPa 0,0 l/m 27,9 km/h (4 Bft) SW 217 0 min 0,000 mm 0,0 UV-I 38 W/m 6,6 C -0,5 C 41,8 km/h (6 Bft) 96,58 %
01.12.2015 11:45 8,8 C 86 % 1022,8 hPa 0,0 l/m 24,2 km/h (4 Bft) W-SW 246 0 min 0,000 mm 0,0 UV-I 40 W/m 6,6 C 0,4 C 33,8 km/h (5 Bft) 100,00 %
01.12.2015 11:55 8,8 C 87 % 1022,9 hPa 0,2 l/m 24,2 km/h (4 Bft) W-SW 238 0 min 0,000 mm 0,0 UV-I 38 W/m 6,8 C 0,4 C 38,6 km/h (5 Bft) 98,20 %
01.12.2015 12:00 8,8 C 87 % 1022,9 hPa 0,0 l/m 21,0 km/h (4 Bft) W-SW 253 0 min 0,051 mm 0,0 UV-I 43 W/m 6,8 C 1,4 C 33,8 km/h (5 Bft) 99,13 %
01.12.2015 12:05 8,7 C 88 % 1023,0 hPa 0,0 l/m 22,6 km/h (4 Bft) W-SW 253 0 min 0,000 mm 0,0 UV-I 45 W/m 6,8 C 0,8 C 41,8 km/h (6 Bft) 98,17 %
01.12.2015 12:10 8,8 C 87 % 1022,9 hPa 0,0 l/m 25,3 km/h (4 Bft) S-SW 213 0 min 0,000 mm 0,0 UV-I 39 W/m 6,8 C 0,1 C 43,5 km/h (6 Bft) 100,00 %
01.12.2015 12:15 8,7 C 88 % 1022,9 hPa 0,0 l/m 23,9 km/h (4 Bft) W-SW 255 0 min 0,000 mm 0,0 UV-I 43 W/m 6,8 C 0,4 C 40,2 km/h (6 Bft) 99,11 %
01.12.2015 12:20 8,7 C 88 % 1022,9 hPa 0,0 l/m 24,2 km/h (4 Bft) W-SW 240 0 min 0,000 mm 0,0 UV-I 52 W/m 6,8 C 0,3 C 40,2 km/h (6 Bft) 99,12 %
01.12.2015 12:25 8,7 C 88 % 1023,0 hPa 0,0 l/m 25,0 km/h (4 Bft) S-SW 212 0 min 0,000 mm 0,0 UV-I 50 W/m 6,8 C 0,1 C 40,2 km/h (6 Bft) 98,35 %
01.12.2015 12:30 8,7 C 88 % 1022,9 hPa 0,0 l/m 25,5 km/h (4 Bft) W-SW 255 0 min 0,000 mm 0,0 UV-I 49 W/m 6,8 C -0,1 C 38,6 km/h (5 Bft) 99,08 %
01.12.2015 12:35 8,7 C 89 % 1023,0 hPa 0,0 l/m 21,4 km/h (4 Bft) W 264 0 min 0,000 mm 0,0 UV-I 58 W/m 7,0 C 1,1 C 35,4 km/h (5 Bft) 99,17 %
01.12.2015 12:40 8,7 C 89 % 1022,8 hPa 0,0 l/m 25,6 km/h (4 Bft) SW 235 0 min 0,000 mm 0,0 UV-I 60 W/m 7,0 C -0,1 C 40,2 km/h (6 Bft) 100,00 %
01.12.2015 12:45 8,7 C 89 % 1022,8 hPa 0,2 l/m 23,1 km/h (4 Bft) SW 230 0 min 0,000 mm 0,0 UV-I 75 W/m 7,0 C 0,6 C 43,5 km/h (6 Bft) 97,50 %
01.12.2015 12:50 8,8 C 89 % 1022,8 hPa 0,0 l/m 26,0 km/h (4 Bft) W 269 0 min 0,000 mm 0,0 UV-I 68 W/m 7,1 C -0,1 C 40,2 km/h (6 Bft) 99,19 %
01.12.2015 12:55 8,8 C 89 % 1022,8 hPa 0,0 l/m 25,3 km/h (4 Bft) SW 227 0 min 0,000 mm 0,0 UV-I 58 W/m 7,1 C 0,1 C 43,5 km/h (6 Bft) 97,25 %
01.12.2015 13:00 8,8 C 88 % 1022,8 hPa 0,0 l/m 25,6 km/h (4 Bft) W-SW 254 0 min 0,051 mm 0,0 UV-I 54 W/m 6,9 C 0,0 C 38,6 km/h (5 Bft) 96,83 %
01.12.2015 13:05 8,8 C 88 % 1023,0 hPa 0,0 l/m 25,5 km/h (4 Bft) SW 219 0 min 0,000 mm 0,0 UV-I 46 W/m 6,9 C 0,1 C 40,2 km/h (6 Bft) 96,43 %
01.12.2015 13:10 8,9 C 87 % 1023,1 hPa 0,0 l/m 28,3 km/h (4 Bft) NW 316 0 min 0,000 mm 0,0 UV-I 49 W/m 6,9 C -0,5 C 45,1 km/h (6 Bft) 97,39 %
01.12.2015 13:15 9,0 C 87 % 1023,1 hPa 0,0 l/m 25,9 km/h (4 Bft) W-SW 256 0 min 0,000 mm 0,0 UV-I 67 W/m 7,0 C 0,2 C 40,2 km/h (6 Bft) 97,62 %
01.12.2015 13:20 9,1 C 87 % 1023,2 hPa 0,0 l/m 26,0 km/h (4 Bft) W-SW 242 0 min 0,000 mm 0,0 UV-I 62 W/m 7,1 C 0,3 C 38,6 km/h (5 Bft) 97,39 %
01.12.2015 13:25 9,1 C 87 % 1023,2 hPa 0,0 l/m 24,8 km/h (4 Bft) W-SW 255 0 min 0,000 mm 0,0 UV-I 48 W/m 7,1 C 0,7 C 45,1 km/h (6 Bft) 97,44 %
01.12.2015 13:30 9,1 C 86 % 1023,2 hPa 0,0 l/m 25,0 km/h (4 Bft) W-SW 253 0 min 0,000 mm 0,0 UV-I 42 W/m 6,9 C 0,6 C 43,5 km/h (6 Bft) 98,21 %
01.12.2015 13:35 9,2 C 86 % 1023,2 hPa 0,0 l/m 26,2 km/h (4 Bft) W 269 0 min 0,000 mm 0,0 UV-I 42 W/m 7,0 C 0,4 C 43,5 km/h (6 Bft) 99,13 %
01.12.2015 13:40 9,2 C 86 % 1023,2 hPa 0,0 l/m 22,8 km/h (4 Bft) SW 221 0 min 0,000 mm 0,0 UV-I 37 W/m 7,0 C 1,4 C 40,2 km/h (6 Bft) 97,50 %
01.12.2015 13:45 9,2 C 85 % 1023,2 hPa 0,0 l/m 24,7 km/h (4 Bft) W-SW 248 0 min 0,000 mm 0,0 UV-I 34 W/m 6,8 C 0,8 C 43,5 km/h (6 Bft) 98,21 %
01.12.2015 13:50 9,2 C 85 % 1023,2 hPa 0,0 l/m 26,4 km/h (4 Bft) W-SW 252 0 min 0,000 mm 0,0 UV-I 31 W/m 6,8 C 0,4 C 38,6 km/h (5 Bft) 100,00 %
01.12.2015 13:55 9,2 C 86 % 1023,2 hPa 0,0 l/m 22,1 km/h (4 Bft) SW 220 0 min 0,000 mm 0,0 UV-I 35 W/m 7,0 C 1,6 C 37,0 km/h (5 Bft) 100,00 %
01.12.2015 14:00 9,2 C 85 % 1023,3 hPa 0,0 l/m 23,2 km/h (4 Bft) SW 218 0 min 0,051 mm 0,0 UV-I 35 W/m 6,8 C 1,3 C 41,8 km/h (6 Bft) 95,16 %
01.12.2015 14:05 9,3 C 85 % 1023,3 hPa 0,0 l/m 24,7 km/h (4 Bft) W-SW 248 0 min 0,000 mm 0,0 UV-I 31 W/m 6,9 C 1,0 C 43,5 km/h (6 Bft) 99,12 %
01.12.2015 14:10 9,3 C 85 % 1023,3 hPa 0,0 l/m 26,6 km/h (4 Bft) W-SW 254 0 min 0,000 mm 0,0 UV-I 29 W/m 6,9 C 0,5 C 43,5 km/h (6 Bft) 99,17 %
01.12.2015 14:15 9,3 C 85 % 1023,3 hPa 0,0 l/m 23,3 km/h (4 Bft) W-SW 239 0 min 0,000 mm 0,0 UV-I 31 W/m 6,9 C 1,4 C 41,8 km/h (6 Bft) 98,11 %
01.12.2015 14:20 9,3 C 85 % 1023,4 hPa 0,0 l/m 22,4 km/h (4 Bft) W-SW 245 0 min 0,000 mm 0,0 UV-I 27 W/m 6,9 C 1,6 C 33,8 km/h (5 Bft) 100,00 %
01.12.2015 14:25 9,3 C 85 % 1023,3 hPa 0,0 l/m 23,9 km/h (4 Bft) S-SW 210 0 min 0,000 mm 0,0 UV-I 26 W/m 6,9 C 1,2 C 33,8 km/h (5 Bft) 99,11 %
01.12.2015 14:30 9,3 C 85 % 1023,4 hPa 0,0 l/m 24,0 km/h (4 Bft) W-SW 250 0 min 0,000 mm 0,0 UV-I 23 W/m 6,9 C 1,2 C 38,6 km/h (5 Bft) 100,00 %
01.12.2015 14:35 9,3 C 85 % 1023,4 hPa 0,0 l/m 23,8 km/h (4 Bft) W-SW 247 0 min 0,000 mm 0,0 UV-I 20 W/m 6,9 C 1,2 C 37,0 km/h (5 Bft) 98,37 %
01.12.2015 14:40 9,3 C 85 % 1023,4 hPa 0,0 l/m 22,0 km/h (4 Bft) W 271 0 min 0,000 mm 0,0 UV-I 14 W/m 6,9 C 1,7 C 35,4 km/h (5 Bft) 98,21 %
01.12.2015 14:45 9,3 C 85 % 1023,5 hPa 0,0 l/m 22,4 km/h (4 Bft) W-SW 253 0 min 0,000 mm 0,0 UV-I 14 W/m 6,9 C 1,6 C 33,8 km/h (5 Bft) 100,00 %
01.12.2015 14:50 9,3 C 85 % 1023,5 hPa 0,0 l/m 22,4 km/h (4 Bft) W 268 0 min 0,000 mm 0,0 UV-I 15 W/m 6,9 C 1,6 C 33,8 km/h (5 Bft) 100,00 %
01.12.2015 14:55 9,3 C 85 % 1023,6 hPa 0,0 l/m 24,4 km/h (4 Bft) W 260 0 min 0,000 mm 0,0 UV-I 15 W/m 6,9 C 1,0 C 40,2 km/h (6 Bft) 100,00 %
01.12.2015 15:00 9,3 C 85 % 1023,6 hPa 0,0 l/m 22,2 km/h (4 Bft) W-SW 247 0 min 0,050 mm 0,0 UV-I 16 W/m 6,9 C 1,7 C 35,4 km/h (5 Bft) 97,50 %
01.12.2015 15:05 9,3 C 85 % 1023,6 hPa 0,0 l/m 20,7 km/h (4 Bft) W-SW 252 0 min 0,000 mm 0,0 UV-I 15 W/m 6,9 C 2,2 C 33,8 km/h (5 Bft) 96,43 %
01.12.2015 15:10 9,3 C 85 % 1023,7 hPa 0,0 l/m 22,7 km/h (4 Bft) W 262 0 min 0,000 mm 0,0 UV-I 13 W/m 6,9 C 1,5 C 35,4 km/h (5 Bft) 96,61 %
01.12.2015 15:15 9,3 C 85 % 1023,7 hPa 0,0 l/m 23,7 km/h (4 Bft) SW 232 0 min 0,000 mm 0,0 UV-I 11 W/m 6,9 C 1,2 C 37,0 km/h (5 Bft) 97,37 %
01.12.2015 15:20 9,3 C 85 % 1023,8 hPa 0,0 l/m 23,1 km/h (4 Bft) S-SW 213 0 min 0,000 mm 0,0 UV-I 10 W/m 6,9 C 1,4 C 35,4 km/h (5 Bft) 96,06 %
01.12.2015 15:25 9,3 C 85 % 1023,8 hPa 0,0 l/m 22,7 km/h (4 Bft) SW 232 0 min 0,000 mm 0,0 UV-I 6 W/m 6,9 C 1,5 C 33,8 km/h (5 Bft) 95,83 %
01.12.2015 15:30 9,3 C 86 % 1023,9 hPa 0,0 l/m 22,5 km/h (4 Bft) W-SW 256 0 min 0,000 mm 0,0 UV-I 4 W/m 7,1 C 1,6 C 37,0 km/h (5 Bft) 97,46 %
01.12.2015 15:35 9,3 C 86 % 1023,9 hPa 0,0 l/m 21,4 km/h (4 Bft) SW 235 0 min 0,000 mm 0,0 UV-I 0 W/m 7,1 C 1,9 C 38,6 km/h (5 Bft) 98,11 %
01.12.2015 15:40 9,3 C 86 % 1023,8 hPa 0,0 l/m 20,8 km/h (4 Bft) W-SW 242 0 min 0,000 mm 0,0 UV-I 0 W/m 7,1 C 2,1 C 30,6 km/h (5 Bft) 99,15 %
01.12.2015 15:45 9,2 C 86 % 1023,7 hPa 0,0 l/m 22,0 km/h (4 Bft) SW 231 0 min 0,000 mm 0,0 UV-I 0 W/m 7,0 C 1,6 C 38,6 km/h (5 Bft) 99,21 %
01.12.2015 15:50 9,2 C 86 % 1023,8 hPa 0,0 l/m 21,0 km/h (4 Bft) SW 216 0 min 0,000 mm 0,0 UV-I 3 W/m 7,0 C 1,9 C 43,5 km/h (6 Bft) 100,00 %
01.12.2015 15:55 9,2 C 86 % 1023,9 hPa 0,0 l/m 20,4 km/h (4 Bft) S-SW 197 0 min 0,000 mm 0,0 UV-I 0 W/m 7,0 C 2,1 C 40,2 km/h (6 Bft) 100,00 %
01.12.2015 16:00 9,2 C 86 % 1024,0 hPa 0,0 l/m 21,7 km/h (4 Bft) W 259 0 min 0,026 mm 0,0 UV-I 0 W/m 7,0 C 1,7 C 33,8 km/h (5 Bft) 99,15 %
01.12.2015 16:05 9,2 C 87 % 1024,0 hPa 0,0 l/m 20,9 km/h (4 Bft) SW 232 0 min 0,000 mm 0,0 UV-I 0 W/m 7,2 C 2,0 C 33,8 km/h (5 Bft) 100,00 %
01.12.2015 16:10 9,2 C 87 % 1024,0 hPa 0,0 l/m 20,3 km/h (4 Bft) S 190 0 min 0,000 mm 0,0 UV-I 0 W/m 7,2 C 2,2 C 32,2 km/h (5 Bft) 100,00 %
01.12.2015 16:15 9,2 C 87 % 1023,9 hPa 0,0 l/m 21,0 km/h (4 Bft) SW 215 0 min 0,000 mm 0,0 UV-I 0 W/m 7,2 C 1,9 C 33,8 km/h (5 Bft) 99,17 %
01.12.2015 16:20 9,2 C 87 % 1024,0 hPa 0,0 l/m 16,7 km/h (3 Bft) SW 229 0 min 0,000 mm 0,0 UV-I 0 W/m 7,2 C 3,5 C 25,7 km/h (4 Bft) 98,25 %
01.12.2015 16:25 9,2 C 87 % 1024,1 hPa 0,0 l/m 19,1 km/h (3 Bft) S-SW 195 0 min 0,000 mm 0,0 UV-I 0 W/m 7,2 C 2,6 C 27,4 km/h (4 Bft) 99,13 %
01.12.2015 16:30 9,2 C 87 % 1024,2 hPa 0,0 l/m 19,2 km/h (3 Bft) W-SW 251 0 min 0,000 mm 0,0 UV-I 0 W/m 7,2 C 2,5 C 32,2 km/h (5 Bft) 98,31 %
01.12.2015 16:35 9,1 C 88 % 1024,2 hPa 0,0 l/m 18,5 km/h (3 Bft) W-SW 240 0 min 0,000 mm 0,0 UV-I 0 W/m 7,2 C 2,7 C 29,0 km/h (5 Bft) 99,15 %
01.12.2015 16:40 9,1 C 88 % 1024,3 hPa 0,0 l/m 19,3 km/h (3 Bft) W-SW 252 0 min 0,000 mm 0,0 UV-I 0 W/m 7,2 C 2,4 C 30,6 km/h (5 Bft) 100,00 %
01.12.2015 16:45 9,1 C 89 % 1024,3 hPa 0,0 l/m 18,8 km/h (3 Bft) SW 236 0 min 0,000 mm 0,0 UV-I 0 W/m 7,4 C 2,5 C 30,6 km/h (5 Bft) 99,08 %
01.12.2015 16:50 8,9 C 89 % 1024,4 hPa 0,0 l/m 15,6 km/h (3 Bft) SW 227 0 min 0,000 mm 0,0 UV-I 0 W/m 7,2 C 3,5 C 25,7 km/h (4 Bft) 100,00 %
01.12.2015 16:55 8,8 C 90 % 1024,4 hPa 0,0 l/m 16,4 km/h (3 Bft) SW 228 0 min 0,000 mm 0,0 UV-I 0 W/m 7,3 C 3,1 C 27,4 km/h (4 Bft) 97,39 %
01.12.2015 17:00 8,8 C 91 % 1024,6 hPa 0,0 l/m 16,8 km/h (3 Bft) S-SO 154 0 min 0,025 mm 0,0 UV-I 0 W/m 7,4 C 2,9 C 32,2 km/h (5 Bft) 100,00 %
01.12.2015 17:05 8,7 C 91 % 1024,5 hPa 0,0 l/m 17,3 km/h (3 Bft) SW 223 0 min 0,000 mm 0,0 UV-I 0 W/m 7,3 C 2,6 C 25,7 km/h (4 Bft) 97,64 %
01.12.2015 17:10 8,7 C 92 % 1024,6 hPa 0,0 l/m 15,6 km/h (3 Bft) W-SW 258 0 min 0,000 mm 0,0 UV-I 0 W/m 7,5 C 3,3 C 30,6 km/h (5 Bft) 97,44 %
01.12.2015 17:15 8,6 C 92 % 1024,5 hPa 0,0 l/m 15,4 km/h (3 Bft) SW 236 0 min 0,000 mm 0,0 UV-I 0 W/m 7,4 C 3,3 C 22,5 km/h (4 Bft) 94,44 %
01.12.2015 17:20 8,6 C 93 % 1024,5 hPa 0,0 l/m 18,3 km/h (3 Bft) W-SW 252 0 min 0,000 mm 0,0 UV-I 0 W/m 7,5 C 2,1 C 33,8 km/h (5 Bft) 96,77 %
01.12.2015 17:25 8,6 C 93 % 1024,6 hPa 0,0 l/m 19,3 km/h (3 Bft) SW 227 0 min 0,000 mm 0,0 UV-I 0 W/m 7,5 C 1,7 C 27,4 km/h (4 Bft) 93,40 %
01.12.2015 17:30 8,5 C 93 % 1024,7 hPa 0,0 l/m 17,4 km/h (3 Bft) SW 214 0 min 0,000 mm 0,0 UV-I 0 W/m 7,4 C 2,3 C 30,6 km/h (5 Bft) 96,90 %
01.12.2015 17:35 8,5 C 93 % 1024,7 hPa 0,0 l/m 18,3 km/h (3 Bft) SW 226 0 min 0,000 mm 0,0 UV-I 0 W/m 7,4 C 2,0 C 29,0 km/h (5 Bft) 98,17 %
01.12.2015 17:40 8,6 C 93 % 1024,8 hPa 0,0 l/m 15,6 km/h (3 Bft) SW 218 0 min 0,000 mm 0,0 UV-I 0 W/m 7,5 C 3,2 C 24,1 km/h (4 Bft) 98,29 %
01.12.2015 17:45 8,6 C 93 % 1024,7 hPa 0,0 l/m 16,8 km/h (3 Bft) SW 215 0 min 0,000 mm 0,0 UV-I 0 W/m 7,5 C 2,7 C 32,2 km/h (5 Bft) 95,28 %
01.12.2015 17:50 8,6 C 93 % 1024,9 hPa 0,0 l/m 19,4 km/h (3 Bft) W 269 0 min 0,000 mm 0,0 UV-I 0 W/m 7,5 C 1,7 C 30,6 km/h (5 Bft) 100,00 %
01.12.2015 17:55 8,6 C 93 % 1024,9 hPa 0,0 l/m 17,0 km/h (3 Bft) SW 219 0 min 0,000 mm 0,0 UV-I 0 W/m 7,5 C 2,6 C 32,2 km/h (5 Bft) 97,78 %
01.12.2015 18:00 8,7 C 93 % 1025,0 hPa 0,0 l/m 20,0 km/h (4 Bft) SW 223 0 min 0,026 mm 0,0 UV-I 0 W/m 7,6 C 1,6 C 32,2 km/h (5 Bft) 98,17 %
01.12.2015 18:05 8,7 C 93 % 1025,0 hPa 0,0 l/m 18,0 km/h (3 Bft) W-SW 243 0 min 0,000 mm 0,0 UV-I 0 W/m 7,6 C 2,3 C 27,4 km/h (4 Bft) 97,56 %
01.12.2015 18:10 8,7 C 93 % 1025,0 hPa 0,0 l/m 17,1 km/h (3 Bft) SW 232 0 min 0,000 mm 0,0 UV-I 0 W/m 7,6 C 2,7 C 29,0 km/h (5 Bft) 98,35 %
01.12.2015 18:15 8,7 C 93 % 1025,0 hPa 0,0 l/m 18,1 km/h (3 Bft) SW 233 0 min 0,000 mm 0,0 UV-I 0 W/m 7,6 C 2,3 C 30,6 km/h (5 Bft) 98,31 %
01.12.2015 18:20 8,7 C 93 % 1025,2 hPa 0,0 l/m 18,7 km/h (3 Bft) W 259 0 min 0,000 mm 0,0 UV-I 0 W/m 7,6 C 2,1 C 30,6 km/h (5 Bft) 100,00 %
01.12.2015 18:25 8,6 C 93 % 1025,3 hPa 0,0 l/m 18,2 km/h (3 Bft) W-SW 240 0 min 0,000 mm 0,0 UV-I 0 W/m 7,5 C 2,1 C 29,0 km/h (5 Bft) 98,45 %
01.12.2015 18:30 8,7 C 93 % 1025,3 hPa 0,2 l/m 16,4 km/h (3 Bft) SW 236 0 min 0,000 mm 0,0 UV-I 0 W/m 7,6 C 3,0 C 22,5 km/h (4 Bft) 99,13 %
01.12.2015 18:35 8,6 C 93 % 1025,3 hPa 0,0 l/m 15,1 km/h (3 Bft) W 259 0 min 0,000 mm 0,0 UV-I 0 W/m 7,5 C 3,4 C 25,7 km/h (4 Bft) 100,00 %
01.12.2015 18:40 8,6 C 93 % 1025,3 hPa 0,0 l/m 15,6 km/h (3 Bft) W-SW 254 0 min 0,000 mm 0,0 UV-I 0 W/m 7,5 C 3,2 C 24,1 km/h (4 Bft) 98,17 %
01.12.2015 18:45 8,6 C 94 % 1025,3 hPa 0,0 l/m 14,9 km/h (3 Bft) W-SW 256 0 min 0,000 mm 0,0 UV-I 0 W/m 7,7 C 3,5 C 24,1 km/h (4 Bft) 99,15 %
01.12.2015 18:50 8,6 C 94 % 1025,3 hPa 0,0 l/m 14,3 km/h (3 Bft) W-SW 242 0 min 0,000 mm 0,0 UV-I 0 W/m 7,7 C 3,8 C 22,5 km/h (4 Bft) 99,19 %
01.12.2015 18:55 8,6 C 94 % 1025,3 hPa 0,0 l/m 14,5 km/h (3 Bft) W-SW 251 0 min 0,000 mm 0,0 UV-I 0 W/m 7,7 C 3,7 C 24,1 km/h (4 Bft) 98,06 %
01.12.2015 19:00 8,6 C 94 % 1025,5 hPa 0,0 l/m 14,2 km/h (3 Bft) W-SW 250 0 min 0,000 mm 0,0 UV-I 0 W/m 7,7 C 3,8 C 20,9 km/h (4 Bft) 98,41 %
01.12.2015 19:05 8,6 C 94 % 1025,5 hPa 0,2 l/m 14,0 km/h (3 Bft) SW 229 0 min 0,000 mm 0,0 UV-I 0 W/m 7,7 C 3,9 C 22,5 km/h (4 Bft) 100,00 %
01.12.2015 19:10 8,7 C 94 % 1025,5 hPa 0,0 l/m 14,6 km/h (3 Bft) W-SW 248 0 min 0,000 mm 0,0 UV-I 0 W/m 7,8 C 3,7 C 24,1 km/h (4 Bft) 97,52 %
01.12.2015 19:15 8,7 C 93 % 1025,5 hPa 0,0 l/m 13,8 km/h (3 Bft) SW 236 0 min 0,000 mm 0,0 UV-I 0 W/m 7,6 C 4,1 C 22,5 km/h (4 Bft) 97,44 %
01.12.2015 19:20 8,7 C 93 % 1025,6 hPa 0,0 l/m 14,5 km/h (3 Bft) SW 221 0 min 0,000 mm 0,0 UV-I 0 W/m 7,6 C 3,8 C 22,5 km/h (4 Bft) 97,32 %
01.12.2015 19:25 8,7 C 93 % 1025,6 hPa 0,0 l/m 13,1 km/h (3 Bft) SW 222 0 min 0,000 mm 0,0 UV-I 0 W/m 7,6 C 4,5 C 20,9 km/h (4 Bft) 96,03 %
01.12.2015 19:30 8,7 C 93 % 1025,6 hPa 0,0 l/m 15,0 km/h (3 Bft) W-SW 253 0 min 0,000 mm 0,0 UV-I 0 W/m 7,6 C 3,6 C 22,5 km/h (4 Bft) 98,17 %
01.12.2015 19:35 8,7 C 93 % 1025,6 hPa 0,0 l/m 14,5 km/h (3 Bft) W-SW 254 0 min 0,000 mm 0,0 UV-I 0 W/m 7,6 C 3,8 C 22,5 km/h (4 Bft) 95,87 %
01.12.2015 19:40 8,7 C 93 % 1025,6 hPa 0,0 l/m 14,3 km/h (3 Bft) W 271 0 min 0,000 mm 0,0 UV-I 0 W/m 7,6 C 3,9 C 20,9 km/h (4 Bft) 95,50 %
01.12.2015 19:45 8,7 C 93 % 1025,7 hPa 0,2 l/m 15,8 km/h (3 Bft) SW 235 0 min 0,000 mm 0,0 UV-I 0 W/m 7,6 C 3,2 C 24,1 km/h (4 Bft) 98,26 %
01.12.2015 19:50 8,7 C 93 % 1025,7 hPa 0,0 l/m 16,6 km/h (3 Bft) SW 220 0 min 0,000 mm 0,0 UV-I 0 W/m 7,6 C 2,9 C 24,1 km/h (4 Bft) 98,39 %
01.12.2015 19:55 8,7 C 93 % 1025,6 hPa 0,0 l/m 14,9 km/h (3 Bft) W 259 0 min 0,000 mm 0,0 UV-I 0 W/m 7,6 C 3,6 C 22,5 km/h (4 Bft) 99,12 %
01.12.2015 20:00 8,7 C 93 % 1025,6 hPa 0,0 l/m 16,2 km/h (3 Bft) W-SW 248 0 min 0,000 mm 0,0 UV-I 0 W/m 7,6 C 3,0 C 22,5 km/h (4 Bft) 100,00 %
01.12.2015 20:05 8,7 C 93 % 1025,6 hPa 0,0 l/m 16,1 km/h (3 Bft) W-SW 248 0 min 0,000 mm 0,0 UV-I 0 W/m 7,6 C 3,1 C 24,1 km/h (4 Bft) 96,77 %
01.12.2015 20:10 8,7 C 93 % 1025,7 hPa 0,2 l/m 16,4 km/h (3 Bft) W 262 0 min 0,000 mm 0,0 UV-I 0 W/m 7,6 C 3,0 C 29,0 km/h (5 Bft) 99,15 %
01.12.2015 20:15 8,7 C 93 % 1025,7 hPa 0,0 l/m 16,0 km/h (3 Bft) W-SW 253 0 min 0,000 mm 0,0 UV-I 0 W/m 7,6 C 3,1 C 25,7 km/h (4 Bft) 100,00 %
01.12.2015 20:20 8,7 C 93 % 1025,8 hPa 0,0 l/m 14,7 km/h (3 Bft) W-SW 242 0 min 0,000 mm 0,0 UV-I 0 W/m 7,6 C 3,7 C 24,1 km/h (4 Bft) 99,15 %
01.12.2015 20:25 8,7 C 93 % 1025,8 hPa 0,2 l/m 15,3 km/h (3 Bft) S-SW 211 0 min 0,000 mm 0,0 UV-I 0 W/m 7,6 C 3,4 C 25,7 km/h (4 Bft) 97,39 %
01.12.2015 20:30 8,7 C 93 % 1025,9 hPa 0,0 l/m 15,9 km/h (3 Bft) W 261 0 min 0,000 mm 0,0 UV-I 0 W/m 7,6 C 3,2 C 24,1 km/h (4 Bft) 99,13 %
01.12.2015 20:35 8,7 C 93 % 1025,9 hPa 0,0 l/m 14,0 km/h (3 Bft) SW 232 0 min 0,000 mm 0,0 UV-I 0 W/m 7,6 C 4,0 C 22,5 km/h (4 Bft) 100,00 %
01.12.2015 20:40 8,7 C 93 % 1025,9 hPa 0,0 l/m 13,3 km/h (3 Bft) W 277 0 min 0,000 mm 0,0 UV-I 0 W/m 7,6 C 4,4 C 22,5 km/h (4 Bft) 99,13 %
01.12.2015 20:45 8,7 C 93 % 1025,9 hPa 0,0 l/m 14,7 km/h (3 Bft) SW 236 0 min 0,000 mm 0,0 UV-I 0 W/m 7,6 C 3,7 C 19,3 km/h (3 Bft) 100,00 %
01.12.2015 20:50 8,7 C 93 % 1025,9 hPa 0,0 l/m 13,7 km/h (3 Bft) W-SW 254 0 min 0,000 mm 0,0 UV-I 0 W/m 7,6 C 4,2 C 20,9 km/h (4 Bft) 99,12 %
01.12.2015 20:55 8,7 C 93 % 1026,0 hPa 0,0 l/m 14,1 km/h (3 Bft) W-SW 250 0 min 0,000 mm 0,0 UV-I 0 W/m 7,6 C 4,0 C 24,1 km/h (4 Bft) 98,43 %
01.12.2015 21:00 8,7 C 94 % 1026,1 hPa 0,0 l/m 11,8 km/h (2 Bft) W-SW 255 0 min 0,000 mm 0,0 UV-I 0 W/m 7,8 C 5,1 C 22,5 km/h (4 Bft) 100,00 %
01.12.2015 21:05 8,7 C 93 % 1026,1 hPa 0,2 l/m 11,9 km/h (2 Bft) SW 222 0 min 0,000 mm 0,0 UV-I 0 W/m 7,6 C 5,1 C 20,9 km/h (4 Bft) 99,26 %
01.12.2015 21:10 8,7 C 93 % 1026,2 hPa 0,0 l/m 12,9 km/h (3 Bft) W-NW 286 0 min 0,000 mm 0,0 UV-I 0 W/m 7,6 C 4,6 C 22,5 km/h (4 Bft) 100,00 %
01.12.2015 21:15 8,7 C 93 % 1026,2 hPa 0,0 l/m 12,9 km/h (3 Bft) W-SW 256 0 min 0,000 mm 0,0 UV-I 0 W/m 7,6 C 4,6 C 20,9 km/h (4 Bft) 97,44 %
01.12.2015 21:20 8,7 C 93 % 1026,3 hPa 0,0 l/m 13,3 km/h (3 Bft) W-SW 237 0 min 0,000 mm 0,0 UV-I 0 W/m 7,6 C 4,4 C 19,3 km/h (3 Bft) 96,43 %
01.12.2015 21:25 8,7 C 93 % 1026,4 hPa 0,0 l/m 13,2 km/h (3 Bft) SW 232 0 min 0,000 mm 0,0 UV-I 0 W/m 7,6 C 4,4 C 22,5 km/h (4 Bft) 97,39 %
01.12.2015 21:30 8,8 C 93 % 1026,4 hPa 0,0 l/m 13,9 km/h (3 Bft) W-SW 255 0 min 0,000 mm 0,0 UV-I 0 W/m 7,7 C 4,2 C 22,5 km/h (4 Bft) 96,03 %
01.12.2015 21:35 8,8 C 93 % 1026,4 hPa 0,0 l/m 13,4 km/h (3 Bft) SW 223 0 min 0,000 mm 0,0 UV-I 0 W/m 7,7 C 4,4 C 24,1 km/h (4 Bft) 97,39 %
01.12.2015 21:40 8,8 C 93 % 1026,5 hPa 0,0 l/m 13,6 km/h (3 Bft) SW 236 0 min 0,000 mm 0,0 UV-I 0 W/m 7,7 C 4,3 C 20,9 km/h (4 Bft) 96,33 %
01.12.2015 21:45 8,8 C 93 % 1026,5 hPa 0,0 l/m 12,8 km/h (3 Bft) S-SW 200 0 min 0,000 mm 0,0 UV-I 0 W/m 7,7 C 4,7 C 22,5 km/h (4 Bft) 95,83 %
01.12.2015 21:50 8,8 C 93 % 1026,5 hPa 0,0 l/m 10,8 km/h (2 Bft) W-SW 255 0 min 0,000 mm 0,0 UV-I 0 W/m 7,7 C 5,8 C 19,3 km/h (3 Bft) 99,19 %
01.12.2015 21:55 8,8 C 93 % 1026,4 hPa 0,2 l/m 12,5 km/h (3 Bft) W-SW 255 0 min 0,000 mm 0,0 UV-I 0 W/m 7,7 C 4,9 C 20,9 km/h (4 Bft) 97,14 %
01.12.2015 22:00 8,8 C 92 % 1026,6 hPa 0,0 l/m 13,4 km/h (3 Bft) W-SW 243 0 min 0,000 mm 0,0 UV-I 0 W/m 7,6 C 4,4 C 24,1 km/h (4 Bft) 99,15 %
01.12.2015 22:05 8,8 C 92 % 1026,7 hPa 0,0 l/m 11,9 km/h (2 Bft) W-SW 258 0 min 0,000 mm 0,0 UV-I 0 W/m 7,6 C 5,2 C 22,5 km/h (4 Bft) 99,13 %
01.12.2015 22:10 8,8 C 93 % 1026,7 hPa 0,0 l/m 11,8 km/h (2 Bft) SW 230 0 min 0,000 mm 0,0 UV-I 0 W/m 7,7 C 5,2 C 17,7 km/h (3 Bft) 100,00 %
01.12.2015 22:15 8,8 C 93 % 1026,8 hPa 0,0 l/m 12,2 km/h (2 Bft) W-SW 246 0 min 0,000 mm 0,0 UV-I 0 W/m 7,7 C 5,0 C 19,3 km/h (3 Bft) 100,00 %
01.12.2015 22:20 8,8 C 93 % 1026,8 hPa 0,0 l/m 12,2 km/h (2 Bft) S-SW 210 0 min 0,000 mm 0,0 UV-I 0 W/m 7,7 C 5,0 C 19,3 km/h (3 Bft) 98,37 %
01.12.2015 22:25 8,8 C 93 % 1026,9 hPa 0,0 l/m 13,5 km/h (3 Bft) W-SW 250 0 min 0,000 mm 0,0 UV-I 0 W/m 7,7 C 4,4 C 22,5 km/h (4 Bft) 99,15 %
01.12.2015 22:30 8,7 C 93 % 1026,9 hPa 0,0 l/m 14,1 km/h (3 Bft) SW 236 0 min 0,000 mm 0,0 UV-I 0 W/m 7,6 C 4,0 C 24,1 km/h (4 Bft) 100,00 %
01.12.2015 22:35 8,7 C 93 % 1027,0 hPa 0,0 l/m 14,7 km/h (3 Bft) SW 217 0 min 0,000 mm 0,0 UV-I 0 W/m 7,6 C 3,7 C 25,7 km/h (4 Bft) 97,50 %
01.12.2015 22:40 8,7 C 93 % 1027,0 hPa 0,0 l/m 14,5 km/h (3 Bft) W-SW 239 0 min 0,000 mm 0,0 UV-I 0 W/m 7,6 C 3,8 C 22,5 km/h (4 Bft) 99,15 %
01.12.2015 22:45 8,7 C 94 % 1027,0 hPa 0,0 l/m 13,2 km/h (3 Bft) SW 225 0 min 0,000 mm 0,0 UV-I 0 W/m 7,8 C 4,4 C 24,1 km/h (4 Bft) 99,11 %
01.12.2015 22:50 8,7 C 93 % 1026,8 hPa 0,0 l/m 15,6 km/h (3 Bft) SW 227 0 min 0,000 mm 0,0 UV-I 0 W/m 7,6 C 3,3 C 27,4 km/h (4 Bft) 100,00 %
01.12.2015 22:55 8,7 C 94 % 1026,9 hPa 0,0 l/m 17,0 km/h (3 Bft) W 270 0 min 0,000 mm 0,0 UV-I 0 W/m 7,8 C 2,7 C 25,7 km/h (4 Bft) 100,00 %
01.12.2015 23:00 8,7 C 93 % 1026,9 hPa 0,0 l/m 17,3 km/h (3 Bft) SW 224 0 min 0,000 mm 0,0 UV-I 0 W/m 7,6 C 2,6 C 25,7 km/h (4 Bft) 100,00 %
01.12.2015 23:05 8,7 C 93 % 1026,7 hPa 0,0 l/m 17,1 km/h (3 Bft) SW 226 0 min 0,000 mm 0,0 UV-I 0 W/m 7,6 C 2,7 C 27,4 km/h (4 Bft) 100,00 %
01.12.2015 23:10 8,8 C 93 % 1026,7 hPa 0,0 l/m 20,3 km/h (4 Bft) W-SW 247 0 min 0,000 mm 0,0 UV-I 0 W/m 7,7 C 1,6 C 33,8 km/h (5 Bft) 100,00 %
01.12.2015 23:15 8,8 C 93 % 1026,8 hPa 0,0 l/m 17,9 km/h (3 Bft) S 190 0 min 0,000 mm 0,0 UV-I 0 W/m 7,7 C 2,5 C 27,4 km/h (4 Bft) 100,00 %
01.12.2015 23:20 8,8 C 93 % 1026,9 hPa 0,0 l/m 17,3 km/h (3 Bft) W-SW 238 0 min 0,000 mm 0,0 UV-I 0 W/m 7,7 C 2,7 C 25,7 km/h (4 Bft) 96,61 %
01.12.2015 23:25 8,8 C 93 % 1026,9 hPa 0,0 l/m 20,0 km/h (4 Bft) W-SW 245 0 min 0,000 mm 0,0 UV-I 0 W/m 7,7 C 1,7 C 32,2 km/h (5 Bft) 96,69 %
01.12.2015 23:30 8,9 C 92 % 1027,0 hPa 0,0 l/m 22,4 km/h (4 Bft) W-SW 252 0 min 0,000 mm 0,0 UV-I 0 W/m 7,7 C 1,1 C 33,8 km/h (5 Bft) 98,15 %
01.12.2015 23:35 8,9 C 92 % 1027,0 hPa 0,0 l/m 17,8 km/h (3 Bft) SW 229 0 min 0,000 mm 0,0 UV-I 0 W/m 7,7 C 2,7 C 32,2 km/h (5 Bft) 95,28 %
01.12.2015 23:40 8,9 C 92 % 1027,2 hPa 0,0 l/m 15,2 km/h (3 Bft) SW 217 0 min 0,000 mm 0,0 UV-I 0 W/m 7,7 C 3,7 C 22,5 km/h (4 Bft) 97,50 %
01.12.2015 23:45 8,9 C 92 % 1027,2 hPa 0,0 l/m 15,8 km/h (3 Bft) SW 234 0 min 0,000 mm 0,0 UV-I 0 W/m 7,7 C 3,5 C 24,1 km/h (4 Bft) 94,64 %
01.12.2015 23:50 9,0 C 91 % 1027,3 hPa 0,0 l/m 17,0 km/h (3 Bft) S-SW 209 0 min 0,000 mm 0,0 UV-I 0 W/m 7,6 C 3,1 C 25,7 km/h (4 Bft) 98,26 %
01.12.2015 23:55 9,1 C 91 % 1027,3 hPa 0,0 l/m 16,6 km/h (3 Bft) W-SW 238 0 min 0,000 mm 0,0 UV-I 0 W/m 7,7 C 3,4 C 29,0 km/h (5 Bft) 99,11 %
_ Min-Zeit 07:45 00:00 00:00 - 21:50 - - - - - - 00:00 08:45 22:10 09:15
Minimum _ 8,1 C 61 % 1017,5 hPa - 10,8 km/h (2 Bft) - - - - - - 4,2 C -0,8 C 17,7 km/h (3 Bft) 92,74 %
_ Max-Zeit 00:00 18:45 23:50 01:00 00:10 - - 00:00 01:00 00:00 12:45 19:10 21:50 00:00 00:35
Maximum _ 11,4 C 94 % 1027,3 hPa 0,2 l/m 35,3 km/h
W-SW (5 Bft)
- - 0 min 0,102 mm 0,0 UV-I 75 W/m 7,8 C 5,8 C 62,8 km/h
W (8 Bft)
100,00 %
Durchschnitt _ 8,9 C 86 % 1022,5 hPa #6,4 l/m 20,5 km/h (4 Bft) W-SW - #0 min. #0,737 mm 0,0 UV-I 27 W/m 6,7 C 1,8 C 33,7 km/h (5 Bft) 98,22 %